SCP
0 -0 0 0 0 0 0 0 0 0 0 0 0 0 0 -0 0 0 0 0 0 0 0 0 0 0 0 0 0 0 0 0 0 0 0 0 0 0 0 0 0 0 0
0 -0 0 -0 0 -0 -0 -0 -0 -0 -0 -0 -0 -0 -0 -0 -0 -0 -0 -0 -0 -0 0 0 0 0 0 0 0 0 0 0 0 0 0 0 0 0 0 0 0 0 0
-0 -0 0 0 0 -0 -0 -0 -0 -0 -0 -0 -0 -0 -0 -0 -0 -0 -0 -0 -0 -0 -0 -0 -0 -0 -0 0 0 0 0 0 0 0 0 0 0 0 0 0 0 0 0
-0 0 0 0 0 -0 -0 -0 -0 -0 -0 -0 -0 -0 -0 -0 -0 -0 -0 -0 -0 -0 -0 -0 -0 -0 -0 -0 0 0 0 0 0 0 0 0 0 0 0 0 0 0 0
-0 0 0 -0 0 0 -0 -0 -0 -0 -0 -0 -0 -0 -0 -0 -0 -0 -0 -0 -0 -0 -0 -0 -0 -0 -0 0 0 0 0 0 0 0 0 0 0 0 1 1 0 0 0
0 0 0 0 0 0 0 0 0 0 0 0 0 0 0 0 -0 -0 -0 0 -0 -0 -0 -0 -0 0 0 0 0 0 0 0 0 0 0 0 0 0 1 1 0 0 0
0 0 0 0 0 0 0 0 0 0 0 0 0 0 0 -0 -0 0 0 0 0 -0 -0 -0 -0 0 0 0 0 0 0 0 0 0 0 0 0 0 1 1 1 1 1
0 -0 0 0 0 0 0 0 0 0 0 0 0 0 -0 -0 -0 -0 -0 -0 -0 -0 -0 -0 0 0 0 0 0 0 1 0 0 0 0 0 0 0 1 1 1 1 1
-0 -0 -0 -0 -0 -0 -0 -0 -0 -0 -0 0 0 0 -0 -0 -0 -0 -0 -0 0 0 -0 0 0 1 1 1 1 0 0 0 1 1 1 0 0 0 1 1 1 1 1
-0 -0 -0 -0 -0 -0 -0 -0 -0 -0 -0 0 0 0 0 0 0 0 0 0 0 0 0 0 1 1 1 1 1 1 1 1 1 1 1 1 0 0 0 1 1 1 1
0 0 0 -0 -0 -0 -0 -0 -0 -0 -0 0 0 0 0 0 0 0 0 0 0 0 0 0 1 1 1 1 1 2 1 2 1 1 1 0 0 0 0 1 1 1 1
0 0 0 0 0 0 0 0 0 0 0 0 0 0 0 0 0 0 0 0 0 0 0 0 0 0 0 0 0 1 1 2 1 1 1 1 1 1 1 1 1 1 2
0 0 0 0 0 0 0 0 0 0 0 0 0 0 0 0 0 0 0 0 0 0 0 0 0 0 0 0 0 0 0 0 0 1 1 1 0 0 1 2 2 2 3
0 0 0 0 0 0 0 0 0 0 0 0 0 0 0 0 0 -0 -0 0 0 0 0 0 0 0 0 0 0 0 0 0 0 0 1 2 1 1 -0 0 3 3 3
0 0 0 0 0 0 0 0 0 0 0 0 0 0 0 0 -0 -0 -0 -0 -0 0 -0 0 0 0 0 0 0 0 0 0 0 0 0 1 1 2 1 0 1 2 2
0 0 0 0 0 0 0 0 0 0 0 0 0 0 0 0 0 0 0 0 0 0 0 0 0 0 0 0 0 0 0 0 0 0 -0 0 1 2 2 3 1 1 2
0 0 0 0 0 0 0 0 0 0 0 0 0 0 0 0 0 0 0 0 0 0 0 0 0 0 0 0 0 0 -0 0 0 0 0 -0 0 0 2 1 1 1 3
0 0 0 0 0 0 0 0 0 0 0 0 0 0 0 0 0 0 0 0 0 0 0 0 0 0 0 0 0 0 0 0 0 0 0 0 0 0 0 2 1 1 1
0 0 0 0 0 0 0 0 0 0 0 0 0 0 0 0 0 0 0 0 0 0 0 0 0 0 0 0 0 0 0 0 0 0 -0 0 0 0 0 0 1 1 1
0 0 0 0 0 0 0 0 0 0 0 0 0 0 0 0 0 0 0 0 0 0 0 0 0 0 0 0 0 0 0 0 0 0 0 0 0 0 0 1 2 2 1
0 0 0 0 0 0 0 0 0 0 0 0 0 0 0 0 0 0 0 0 0 0 0 0 0 0 0 0 0 0 0 0 0 0 0 0 0 0 0 1 0 1 2
0 0 0 0 0 0 0 0 0 0 0 0 0 -0 0 0 0 0 0 0 0 0 0 0 0 0 0 0 0 0 0 0 0 0 0 0 0 0 0 0 0 0 1
0 0 0 0 0 0 0 0 0 -0 -0 -0 -0 -0 -0 -0 0 0 0 0 0 0 0 0 0 0 0 0 0 0 0 0 0 0 0 0 0 0 0 0 0 0 0
0 0 0 0 0 0 0 0 -0 -0 -0 -0 0 0 0 0 0 0 0 0 0 0 0 0 0 0 0 0 0 0 0 0 0 -0 -0 -0 0 0 0 0 0 0 0
0 0 0 0 0 0 0 0 0 0 0 0 0 0 0 0 0 0 0 0 0 0 0 0 0 0 0 0 0 0 0 0 0 0 -0 -0 0 0 0 0 0 0 0
0 0 0 0 0 0 0 0 0 0 0 0 0 0 0 0 0 0 0 0 0 0 0 0 0 0 0 0 0 0 0 0 0 0 0 0 -0 0 0 0 0 0 0
Wind_Speed_500mb
25 28 20 27 30 30 30 30 31 30 29 29 28 26 25 24 23 23 21 18 16 14 11 9 5 4 6 7 7 9 12 14 15 12 9 8 8 9 8 8 7 4 4
27 27 23 29 31 34 34 33 34 33 31 31 29 27 26 25 24 22 20 17 14 12 9 6 3 1 4 7 10 12 13 14 14 12 11 8 9 5 5 9 15 13 8
28 27 28 30 33 35 35 33 34 34 32 30 29 28 27 26 25 23 20 18 16 14 11 8 7 8 10 12 14 16 18 18 18 17 15 11 8 10 15 22 22 19 12
31 29 30 30 32 33 33 32 31 31 31 29 28 28 28 27 26 25 23 22 20 19 17 14 12 12 14 16 19 22 24 25 26 26 24 20 18 15 29 38 25 20 22
27 29 29 29 29 30 29 28 29 30 30 29 29 29 28 27 26 25 24 23 22 21 20 19 19 20 20 21 23 25 28 31 33 34 32 28 22 24 21 35 32 25 25
28 28 30 29 28 27 26 25 26 29 28 27 27 26 25 26 26 26 24 23 23 24 25 25 24 24 24 26 28 31 32 33 36 38 37 35 28 24 25 34 36 40 39
29 28 30 27 27 27 25 24 25 26 27 28 27 27 27 28 26 23 23 24 26 27 27 28 31 33 34 35 36 36 38 39 40 41 40 40 35 33 32 47 53 50 46
19 23 27 28 27 28 28 29 30 30 30 32 32 30 29 30 28 28 27 26 33 33 33 32 33 35 38 41 43 44 45 46 48 49 45 44 43 42 43 43 50 57 52
34 34 38 32 32 32 38 41 39 37 36 33 29 25 26 21 24 27 29 33 35 34 37 41 40 34 37 36 38 43 47 49 53 53 54 54 50 43 50 50 53 60 63
39 38 33 31 31 33 31 35 32 35 31 27 28 26 24 16 20 20 21 23 29 32 38 39 36 40 37 39 41 42 45 52 57 58 56 58 55 55 55 58 57 57 61
36 35 30 29 30 31 34 34 30 28 26 28 27 27 25 26 27 27 22 26 29 33 30 28 32 32 34 38 39 37 42 46 49 50 57 53 50 55 51 67 64 58 59
54 46 43 29 30 27 35 29 19 11 10 17 27 30 31 35 34 35 37 36 34 31 31 36 40 41 39 40 43 41 43 48 50 61 67 63 53 45 41 50 56 64 69
46 43 37 38 42 38 33 22 5 6 14 12 26 38 38 35 40 45 45 43 44 38 40 43 44 47 50 54 58 55 54 52 47 53 52 54 61 55 52 58 73 75 73
36 34 36 33 32 22 16 8 7 13 19 19 29 37 43 44 52 55 55 50 43 38 46 51 52 56 47 45 48 52 52 54 53 53 42 46 60 71 71 62 60 58 72
41 33 27 21 17 10 10 10 13 20 14 16 25 33 42 46 45 54 62 51 39 36 44 54 55 61 57 55 55 57 59 59 60 62 58 47 45 56 68 70 61 62 64
31 19 20 15 9 11 13 13 15 22 16 18 22 31 32 34 42 45 45 46 46 44 50 51 54 53 54 64 63 62 58 61 64 66 69 63 58 48 58 73 83 72 78
17 16 11 4 7 14 16 17 16 20 14 12 20 26 36 43 54 48 51 45 47 46 42 46 44 48 54 63 72 75 78 69 59 56 58 70 72 59 50 57 71 75 86
16 22 19 4 6 12 16 16 7 5 7 15 22 23 34 42 39 40 41 48 43 41 47 55 47 66 65 69 76 81 83 67 73 68 66 73 69 69 66 50 63 75 81
28 24 20 9 5 11 5 2 4 8 15 23 31 29 29 27 33 49 56 42 43 54 63 68 76 69 67 66 65 66 64 73 74 76 74 74 66 61 58 72 67 57 65
27 15 8 10 3 5 6 8 10 16 25 34 32 31 31 45 57 51 53 60 67 78 73 73 49 47 57 68 74 77 69 73 76 75 74 61 57 52 53 53 62 50 56
21 10 10 17 10 11 13 15 23 32 41 39 39 42 51 50 45 61 68 74 78 75 69 63 63 74 79 77 69 73 80 80 72 62 59 58 68 63 55 53 45 56 51
22 15 12 19 17 19 18 22 27 38 52 61 72 73 67 64 55 61 66 60 54 60 66 71 72 73 63 64 60 69 56 65 61 55 70 60 50 52 52 44 37 37 49
23 15 16 16 20 21 28 36 41 51 64 73 73 79 66 61 59 68 68 73 74 72 67 64 68 71 66 61 56 52 40 31 75 67 73 46 52 56 51 34 31 29 31
17 6 15 18 13 16 25 34 44 53 66 72 70 71 64 67 66 82 67 68 66 66 67 68 61 54 53 57 56 50 49 56 52 58 54 56 48 50 43 29 12 17 22
10 18 20 12 12 14 21 34 46 46 54 57 59 60 59 80 77 68 63 61 58 55 51 49 49 49 49 48 47 49 48 48 45 42 49 51 51 49 28 31 16 12 27
8 16 14 5 2 18 29 43 56 43 46 53 52 61 83 81 61 60 61 54 54 47 45 47 45 42 40 37 36 40 36 37 43 45 43 52 50 44 29 20 14 18 10
Wind_Direction_500mb
105 92 83 80 81 82 80 77 78 78 76 75 74 74 74 74 76 77 77 74 70 69 69 68 83 140 171 194 222 243 256 265 271 276 287 292 283 275 270 276 276 225 163
101 96 89 85 85 83 80 79 78 75 72 72 71 70 67 67 65 64 63 64 63 61 56 51 46 295 258 257 254 252 256 269 273 271 280 285 291 258 307 302 313 301 244
108 103 98 93 91 89 87 85 85 84 80 78 76 72 68 63 61 58 55 49 44 42 35 18 350 321 303 290 280 278 281 283 279 276 277 284 313 222 279 280 296 296 276
116 113 106 101 96 96 94 93 89 87 84 77 71 66 61 56 52 50 47 41 32 23 13 1 340 316 299 291 287 283 280 279 277 275 272 267 252 273 283 260 268 281 273
112 110 106 98 93 88 85 84 84 81 76 71 65 60 54 50 45 42 39 33 26 16 5 351 339 326 312 300 291 285 282 280 277 274 271 267 252 268 271 245 257 270 276
125 112 104 96 87 85 83 79 76 75 71 68 62 56 49 43 38 33 28 21 8 1 352 343 333 322 313 306 302 296 289 283 278 276 272 267 255 246 272 257 261 274 279
110 109 105 98 97 89 80 78 77 74 71 66 61 55 51 44 37 34 20 8 0 350 340 332 326 322 318 311 307 302 298 293 287 281 275 270 260 235 258 256 267 272 282
83 103 94 91 88 85 82 77 74 74 72 73 67 60 53 47 40 33 18 13 3 355 347 339 331 324 317 310 304 303 301 297 292 288 284 275 266 245 248 262 266 262 274
123 99 86 86 78 79 82 78 74 73 71 69 62 53 49 45 36 22 11 3 358 345 341 339 340 337 329 322 313 303 299 295 289 289 291 285 275 260 243 251 265 262 269
117 83 82 86 71 67 75 64 59 52 44 55 41 34 42 35 24 4 5 347 334 332 335 338 330 324 326 324 311 308 309 300 287 283 283 286 286 275 251 244 258 261 261
116 106 110 102 75 67 69 69 64 52 35 12 9 21 24 6 2 356 343 328 327 315 310 320 318 309 306 307 309 304 310 303 303 299 284 282 287 286 262 247 250 258 258
131 124 128 146 117 108 93 87 88 80 56 349 351 4 10 2 7 1 353 343 335 331 317 301 295 298 297 303 308 303 309 317 304 298 294 285 288 285 257 257 256 257 260
143 150 150 152 150 136 134 136 178 2 46 358 354 356 356 359 355 356 352 345 338 344 327 320 313 310 300 295 297 299 292 296 306 309 308 286 288 277 276 273 268 259 257
156 161 150 139 151 155 170 173 77 38 28 15 352 347 347 349 347 347 347 346 339 326 322 320 320 321 310 303 296 294 294 290 296 293 293 299 290 269 262 272 263 253 255
154 154 169 164 144 116 79 73 43 41 49 13 343 343 344 343 336 335 340 344 341 311 314 313 313 318 321 315 301 298 295 288 285 295 293 286 283 285 277 275 261 257 249
149 145 151 147 117 68 66 76 46 31 59 16 350 347 341 332 333 338 331 328 332 318 315 306 309 316 321 311 309 307 306 302 295 287 296 294 282 279 275 284 263 257 260
136 118 95 131 57 56 49 63 41 56 46 352 339 344 339 336 337 332 328 319 326 319 313 314 315 307 302 302 304 306 308 312 299 298 295 300 289 282 281 280 271 260 271
147 130 144 250 33 51 65 69 70 9 348 326 335 331 331 334 336 335 324 331 324 314 309 312 305 313 298 298 298 301 304 309 304 302 298 297 303 296 272 280 277 263 270
147 171 196 247 20 88 87 130 328 332 333 349 347 357 340 332 321 315 317 315 309 308 312 313 312 308 304 308 307 305 301 295 302 305 301 303 307 307 297 279 279 270 266
156 177 226 275 34 149 260 309 331 342 349 354 6 339 323 317 319 319 311 312 313 315 314 314 316 316 311 312 306 303 298 297 301 299 308 310 307 321 312 299 287 281 268
165 205 269 283 303 303 343 344 337 346 348 351 341 333 322 319 317 319 320 315 313 312 314 315 310 309 309 314 311 306 300 293 299 301 308 306 313 315 321 309 292 280 278
182 187 248 276 290 311 318 325 331 337 341 342 341 345 336 328 323 318 316 316 313 311 309 309 313 314 309 309 308 309 313 307 306 302 312 322 336 333 315 323 300 276 272
183 188 224 264 289 297 308 314 322 328 335 338 341 342 344 338 329 322 313 308 311 313 312 312 315 315 313 311 308 307 306 294 308 311 315 328 327 324 333 323 297 277 260
152 228 247 272 277 288 299 314 330 336 337 335 331 333 332 331 320 324 319 313 313 311 308 312 316 314 315 315 313 307 299 298 303 314 320 321 331 339 332 318 327 311 271
191 259 250 236 264 262 306 329 332 331 331 330 327 327 322 323 319 325 322 322 322 318 317 322 320 320 318 314 314 311 306 301 304 310 317 321 332 341 336 1 277 216 181
238 223 172 187 187 321 325 325 320 326 326 324 325 322 326 323 330 330 327 327 327 328 325 325 321 322 325 323 319 324 306 311 312 317 314 317 325 334 313 320 311 65 8
Wind_Speed_850mb
25 28 20 27 30 30 30 30 31 30 29 29 28 26 25 24 23 23 21 18 16 14 11 9 5 4 6 7 7 9 12 14 15 12 9 8 8 9 8 8 7 4 4
27 27 23 29 31 34 34 33 34 33 31 31 29 27 26 25 24 22 20 17 14 12 9 6 3 1 4 7 10 12 13 14 14 12 11 8 9 5 5 9 15 13 8
28 27 28 30 33 35 35 33 34 34 32 30 29 28 27 26 25 23 20 18 16 14 11 8 7 8 10 12 14 16 18 18 18 17 15 11 8 10 15 22 22 19 12
31 29 30 30 32 33 33 32 31 31 31 29 28 28 28 27 26 25 23 22 20 19 17 14 12 12 14 16 19 22 24 25 26 26 24 20 18 15 29 38 25 20 22
27 29 29 29 29 30 29 28 29 30 30 29 29 29 28 27 26 25 24 23 22 21 20 19 19 20 20 21 23 25 28 31 33 34 32 28 22 24 21 35 32 25 25
28 28 30 29 28 27 26 25 26 29 28 27 27 26 25 26 26 26 24 23 23 24 25 25 24 24 24 26 28 31 32 33 36 38 37 35 28 24 25 34 36 40 39
29 28 30 27 27 27 25 24 25 26 27 28 27 27 27 28 26 23 23 24 26 27 27 28 31 33 34 35 36 36 38 39 40 41 40 40 35 33 32 47 53 50 46
19 23 27 28 27 28 28 29 30 30 30 32 32 30 29 30 28 28 27 26 33 33 33 32 33 35 38 41 43 44 45 46 48 49 45 44 43 42 43 43 50 57 52
34 34 38 32 32 32 38 41 39 37 36 33 29 25 26 21 24 27 29 33 35 34 37 41 40 34 37 36 38 43 47 49 53 53 54 54 50 43 50 50 53 60 63
39 38 33 31 31 33 31 35 32 35 31 27 28 26 24 16 20 20 21 23 29 32 38 39 36 40 37 39 41 42 45 52 57 58 56 58 55 55 55 58 57 57 61
36 35 30 29 30 31 34 34 30 28 26 28 27 27 25 26 27 27 22 26 29 33 30 28 32 32 34 38 39 37 42 46 49 50 57 53 50 55 51 67 64 58 59
54 46 43 29 30 27 35 29 19 11 10 17 27 30 31 35 34 35 37 36 34 31 31 36 40 41 39 40 43 41 43 48 50 61 67 63 53 45 41 50 56 64 69
46 43 37 38 42 38 33 22 5 6 14 12 26 38 38 35 40 45 45 43 44 38 40 43 44 47 50 54 58 55 54 52 47 53 52 54 61 55 52 58 73 75 73
36 34 36 33 32 22 16 8 7 13 19 19 29 37 43 44 52 55 55 50 43 38 46 51 52 56 47 45 48 52 52 54 53 53 42 46 60 71 71 62 60 58 72
41 33 27 21 17 10 10 10 13 20 14 16 25 33 42 46 45 54 62 51 39 36 44 54 55 61 57 55 55 57 59 59 60 62 58 47 45 56 68 70 61 62 64
31 19 20 15 9 11 13 13 15 22 16 18 22 31 32 34 42 45 45 46 46 44 50 51 54 53 54 64 63 62 58 61 64 66 69 63 58 48 58 73 83 72 78
17 16 11 4 7 14 16 17 16 20 14 12 20 26 36 43 54 48 51 45 47 46 42 46 44 48 54 63 72 75 78 69 59 56 58 70 72 59 50 57 71 75 86
16 22 19 4 6 12 16 16 7 5 7 15 22 23 34 42 39 40 41 48 43 41 47 55 47 66 65 69 76 81 83 67 73 68 66 73 69 69 66 50 63 75 81
28 24 20 9 5 11 5 2 4 8 15 23 31 29 29 27 33 49 56 42 43 54 63 68 76 69 67 66 65 66 64 73 74 76 74 74 66 61 58 72 67 57 65
27 15 8 10 3 5 6 8 10 16 25 34 32 31 31 45 57 51 53 60 67 78 73 73 49 47 57 68 74 77 69 73 76 75 74 61 57 52 53 53 62 50 56
21 10 10 17 10 11 13 15 23 32 41 39 39 42 51 50 45 61 68 74 78 75 69 63 63 74 79 77 69 73 80 80 72 62 59 58 68 63 55 53 45 56 51
22 15 12 19 17 19 18 22 27 38 52 61 72 73 67 64 55 61 66 60 54 60 66 71 72 73 63 64 60 69 56 65 61 55 70 60 50 52 52 44 37 37 49
23 15 16 16 20 21 28 36 41 51 64 73 73 79 66 61 59 68 68 73 74 72 67 64 68 71 66 61 56 52 40 31 75 67 73 46 52 56 51 34 31 29 31
17 6 15 18 13 16 25 34 44 53 66 72 70 71 64 67 66 82 67 68 66 66 67 68 61 54 53 57 56 50 49 56 52 58 54 56 48 50 43 29 12 17 22
10 18 20 12 12 14 21 34 46 46 54 57 59 60 59 80 77 68 63 61 58 55 51 49 49 49 49 48 47 49 48 48 45 42 49 51 51 49 28 31 16 12 27
8 16 14 5 2 18 29 43 56 43 46 53 52 61 83 81 61 60 61 54 54 47 45 47 45 42 40 37 36 40 36 37 43 45 43 52 50 44 29 20 14 18 10
Wind_Direction_850mb
105 92 83 80 81 82 80 77 78 78 76 75 74 74 74 74 76 77 77 74 70 69 69 68 83 140 171 194 222 243 256 265 271 276 287 292 283 275 270 276 276 225 163
101 96 89 85 85 83 80 79 78 75 72 72 71 70 67 67 65 64 63 64 63 61 56 51 46 295 258 257 254 252 256 269 273 271 280 285 291 258 307 302 313 301 244
108 103 98 93 91 89 87 85 85 84 80 78 76 72 68 63 61 58 55 49 44 42 35 18 350 321 303 290 280 278 281 283 279 276 277 284 313 222 279 280 296 296 276
116 113 106 101 96 96 94 93 89 87 84 77 71 66 61 56 52 50 47 41 32 23 13 1 340 316 299 291 287 283 280 279 277 275 272 267 252 273 283 260 268 281 273
112 110 106 98 93 88 85 84 84 81 76 71 65 60 54 50 45 42 39 33 26 16 5 351 339 326 312 300 291 285 282 280 277 274 271 267 252 268 271 245 257 270 276
125 112 104 96 87 85 83 79 76 75 71 68 62 56 49 43 38 33 28 21 8 1 352 343 333 322 313 306 302 296 289 283 278 276 272 267 255 246 272 257 261 274 279
110 109 105 98 97 89 80 78 77 74 71 66 61 55 51 44 37 34 20 8 0 350 340 332 326 322 318 311 307 302 298 293 287 281 275 270 260 235 258 256 267 272 282
83 103 94 91 88 85 82 77 74 74 72 73 67 60 53 47 40 33 18 13 3 355 347 339 331 324 317 310 304 303 301 297 292 288 284 275 266 245 248 262 266 262 274
123 99 86 86 78 79 82 78 74 73 71 69 62 53 49 45 36 22 11 3 358 345 341 339 340 337 329 322 313 303 299 295 289 289 291 285 275 260 243 251 265 262 269
117 83 82 86 71 67 75 64 59 52 44 55 41 34 42 35 24 4 5 347 334 332 335 338 330 324 326 324 311 308 309 300 287 283 283 286 286 275 251 244 258 261 261
116 106 110 102 75 67 69 69 64 52 35 12 9 21 24 6 2 356 343 328 327 315 310 320 318 309 306 307 309 304 310 303 303 299 284 282 287 286 262 247 250 258 258
131 124 128 146 117 108 93 87 88 80 56 349 351 4 10 2 7 1 353 343 335 331 317 301 295 298 297 303 308 303 309 317 304 298 294 285 288 285 257 257 256 257 260
143 150 150 152 150 136 134 136 178 2 46 358 354 356 356 359 355 356 352 345 338 344 327 320 313 310 300 295 297 299 292 296 306 309 308 286 288 277 276 273 268 259 257
156 161 150 139 151 155 170 173 77 38 28 15 352 347 347 349 347 347 347 346 339 326 322 320 320 321 310 303 296 294 294 290 296 293 293 299 290 269 262 272 263 253 255
154 154 169 164 144 116 79 73 43 41 49 13 343 343 344 343 336 335 340 344 341 311 314 313 313 318 321 315 301 298 295 288 285 295 293 286 283 285 277 275 261 257 249
149 145 151 147 117 68 66 76 46 31 59 16 350 347 341 332 333 338 331 328 332 318 315 306 309 316 321 311 309 307 306 302 295 287 296 294 282 279 275 284 263 257 260
136 118 95 131 57 56 49 63 41 56 46 352 339 344 339 336 337 332 328 319 326 319 313 314 315 307 302 302 304 306 308 312 299 298 295 300 289 282 281 280 271 260 271
147 130 144 250 33 51 65 69 70 9 348 326 335 331 331 334 336 335 324 331 324 314 309 312 305 313 298 298 298 301 304 309 304 302 298 297 303 296 272 280 277 263 270
147 171 196 247 20 88 87 130 328 332 333 349 347 357 340 332 321 315 317 315 309 308 312 313 312 308 304 308 307 305 301 295 302 305 301 303 307 307 297 279 279 270 266
156 177 226 275 34 149 260 309 331 342 349 354 6 339 323 317 319 319 311 312 313 315 314 314 316 316 311 312 306 303 298 297 301 299 308 310 307 321 312 299 287 281 268
165 205 269 283 303 303 343 344 337 346 348 351 341 333 322 319 317 319 320 315 313 312 314 315 310 309 309 314 311 306 300 293 299 301 308 306 313 315 321 309 292 280 278
182 187 248 276 290 311 318 325 331 337 341 342 341 345 336 328 323 318 316 316 313 311 309 309 313 314 309 309 308 309 313 307 306 302 312 322 336 333 315 323 300 276 272
183 188 224 264 289 297 308 314 322 328 335 338 341 342 344 338 329 322 313 308 311 313 312 312 315 315 313 311 308 307 306 294 308 311 315 328 327 324 333 323 297 277 260
152 228 247 272 277 288 299 314 330 336 337 335 331 333 332 331 320 324 319 313 313 311 308 312 316 314 315 315 313 307 299 298 303 314 320 321 331 339 332 318 327 311 271
191 259 250 236 264 262 306 329 332 331 331 330 327 327 322 323 319 325 322 322 322 318 317 322 320 320 318 314 314 311 306 301 304 310 317 321 332 341 336 1 277 216 181
238 223 172 187 187 321 325 325 320 326 326 324 325 322 326 323 330 330 327 327 327 328 325 325 321 322 325 323 319 324 306 311 312 317 314 317 325 334 313 320 311 65 8